sat.trackr.live / text

‹ back to catalog

STARLINK-4504

NORAD 53555 · 2022-101AE

PAYLOAD ACTIVE UNKNOWN

§ Identity

Operator
Country
US
Launch date
2022-08-19
Launch site
AFETR
Launch vehicle
Mass (kg)
RCS (m²)

Purposes: comms

External: N2YO · Heavens-Above · Gunter

§ Orbital elements

Epoch: 2026-05-25T02:39:59.693184Z

Period
95.44 min
Inclination
53.2146°
Eccentricity
0.0001490
Mean motion
15.08837886 rev/d
Perigee alt
538.7 km
Apogee alt
540.8 km
Semi-major
6,917.9 km
B*
3.1241e-5
RAAN
81.0514°
Arg perigee
82.8187°
Mean anomaly
277.2975°
Rev number
20,850

§ Raw data

STARLINK-45041 53555U 22101AE  26145.11110756  .00000209  00000+0  31241-4 0  99942 53555  53.2146  81.0514 0001490  82.8187 277.2975 15.08837886208501

JSON: /api/v1/satellites/53555 · /tle

For live sub-satellite position, see the globe view (requires WebGL).

§ Visibility from observer

Set your observer location to see the next 7 days of passes ≥ 10°. The values pass through the URL so the page stays shareable.

No JS? Fill the form by hand. The geolocation button needs JavaScript.